Wind_Speed
48 48 47 44 43 41 40 38 35 36 37 36 43 43 40 39 40 41 43 44 45 50 53 58 62 68 68 65 58 52 36 25 28 23 21 19 15 26 42 53 59 61 60 73 42 53 51
52 51 50 49 47 45 43 43 42 39 34 35 35 43 42 38 37 39 42 43 45 51 56 59 63 66 66 63 57 45 28 21 26 22 21 18 18 33 25 46 54 55 57 73 42 56 43
50 49 53 51 49 47 48 46 45 45 42 39 35 38 42 35 35 38 42 44 45 52 57 59 64 63 63 60 50 37 20 18 18 20 20 19 20 38 30 39 52 52 59 71 38 56 52
50 50 48 52 52 50 48 48 46 48 43 41 39 36 37 40 35 36 41 42 44 52 57 58 63 59 59 52 45 32 16 14 13 15 29 24 16 30 32 44 51 52 61 68 36 60 60
55 58 53 52 52 51 50 48 47 48 41 40 39 35 35 42 43 36 40 40 43 53 54 58 58 57 50 42 34 24 14 11 14 15 24 17 27 40 26 45 50 50 63 36 32 54 56
60 57 52 49 51 49 46 44 43 42 39 38 35 33 32 37 36 37 38 38 43 51 52 56 53 50 39 27 31 20 1 4 13 19 27 19 31 39 34 46 49 49 60 32 43 53 56
57 55 52 49 48 49 47 46 45 43 39 39 37 32 31 35 40 40 39 37 42 49 50 52 47 40 27 22 26 22 11 10 11 22 21 21 29 25 33 43 51 50 62 26 47 53 60
57 55 51 49 50 48 51 49 47 47 43 42 41 39 35 29 38 42 39 40 42 46 47 46 41 29 19 17 20 10 10 6 8 15 22 26 25 26 30 29 37 48 64 27 37 57 39
58 54 52 49 51 52 51 50 49 48 38 40 45 42 36 31 37 40 38 39 40 42 45 42 33 22 13 17 18 16 12 6 11 11 21 22 27 31 35 28 26 39 49 49 36 53 49
62 61 57 56 55 56 57 55 53 52 49 45 43 44 41 35 37 37 38 38 38 39 40 35 26 15 6 13 16 19 15 17 18 26 25 21 19 33 16 20 26 24 39 37 37 31 29
62 62 63 62 59 63 60 59 58 53 53 50 45 46 43 39 35 36 36 37 35 36 38 31 21 9 1 6 15 15 15 23 36 29 23 15 21 22 16 17 19 16 25 35 38 33 14
65 63 64 66 69 66 65 63 62 59 53 55 52 45 43 40 35 38 38 34 32 33 29 26 14 6 3 4 9 11 17 21 24 21 24 18 16 13 17 10 12 14 14 28 41 32 18
68 67 67 67 67 66 65 60 57 56 54 51 54 50 45 38 35 39 37 32 29 29 28 20 10 2 9 5 9 24 21 17 13 15 16 27 20 20 14 14 12 13 18 26 29 21 21
72 70 69 70 70 70 69 68 60 56 54 54 55 50 43 38 34 40 36 26 24 24 24 14 3 2 8 7 18 23 15 12 5 13 15 16 15 9 11 11 9 17 28 23 15 16 19
72 71 73 71 68 66 62 47 48 57 56 55 55 50 43 38 34 41 32 22 20 20 20 8 1 6 11 15 19 20 14 11 15 15 14 16 15 12 9 10 8 10 22 22 12 11 15
73 72 66 64 64 66 32 14 12 33 55 55 48 48 43 40 37 37 22 19 17 17 15 6 6 15 16 25 22 22 4 8 13 12 11 11 12 10 8 13 13 12 10 10 5 8 13
76 69 61 63 63 40 9 38 35 27 53 64 52 44 43 38 41 26 14 16 14 13 9 6 6 19 18 26 23 14 14 15 14 10 10 9 8 6 5 4 7 14 16 18 15 11 10
74 63 59 60 51 15 31 42 34 34 52 54 47 45 35 41 34 20 15 14 9 8 6 1 7 20 25 23 19 17 16 12 11 7 6 4 4 4 5 5 3 5 13 15 19 17 17
67 61 57 54 37 12 39 39 40 44 57 58 51 46 43 42 27 19 17 11 7 4 5 4 9 15 27 26 22 21 20 15 11 6 3 1 1 3 6 5 4 4 6 13 15 16 19
64 57 54 50 24 20 36 43 46 57 63 50 53 48 39 34 23 22 17 11 6 2 5 8 5 15 29 32 28 25 22 16 10 6 3 2 2 2 3 3 4 7 10 10 11 14 17
61 55 49 37 12 24 35 42 49 62 51 56 51 45 37 26 23 24 18 12 7 4 6 10 8 10 20 27 34 28 27 20 18 11 8 4 4 4 1 1 2 3 5 7 7 11 13
60 55 37 14 13 24 36 55 62 51 56 53 46 43 28 21 29 23 17 14 11 9 9 12 11 9 11 17 24 39 35 27 22 18 12 12 10 7 7 4 2 3 3 2 7 11 13
64 38 20 8 19 38 57 62 50 51 55 44 38 30 28 24 25 25 22 18 16 12 11 12 13 11 10 14 20 24 26 25 22 19 19 18 16 15 15 12 12 11 10 9 9 11 12
51 25 8 17 34 56 62 40 46 57 45 40 29 33 30 28 29 28 23 20 18 14 12 15 14 13 11 11 11 14 24 25 23 21 21 22 23 22 20 18 19 17 17 17 15 15 16
35 13 11 33 51 57 39 39 54 47 45 35 30 30 26 33 33 27 24 22 20 18 15 17 18 16 17 17 15 14 11 11 19 21 22 21 19 18 19 20 22 18 17 19 19 22 20
24 6 27 54 46 46 45 50 39 44 38 34 32 29 24 35 31 28 25 23 21 21 17 16 16 17 18 18 17 14 14 13 8 11 18 22 22 21 20 21 20 20 20 18 19 23 24
5 23 56 52 52 52 52 38 41 36 36 32 30 29 28 35 31 29 27 24 20 19 17 15 13 13 13 15 15 15 13 12 10 10 8 9 15 19 21 23 21 19 20 22 23 26 28
14 51 51 52 55 49 45 38 36 35 33 30 31 33 37 34 31 28 28 26 22 18 17 15 13 12 10 10 10 10 11 11 12 9 8 5 4 6 9 15 18 21 24 27 29 29 29
40 58 52 51 50 45 40 38 37 30 31 29 35 35 39 33 30 27 25 25 22 19 16 14 12 10 10 8 7 5 4 4 5 6 5 4 4 2 1 5 8 14 20 23 27 31 32
Wind_Direction
306 303 303 302 304 303 305 304 306 301 307 321 312 301 302 304 307 307 309 312 314 317 317 318 323 324 322 323 322 319 312 290 296 236 234 209 227 210 190 195 202 205 201 195 199 203 200
311 303 300 299 297 297 297 301 305 305 311 309 323 312 306 305 308 310 312 313 315 318 316 319 326 323 323 325 322 320 308 282 299 215 230 224 212 176 176 191 200 201 199 194 196 195 201
308 305 301 293 292 292 293 293 297 301 305 308 318 314 304 302 309 308 315 315 316 317 317 323 325 326 325 326 324 317 300 283 279 209 216 164 171 183 177 184 197 199 196 201 196 195 195
311 307 304 299 291 286 287 290 292 295 300 303 307 317 304 299 311 306 319 317 316 316 319 325 325 328 329 330 326 315 282 276 246 216 202 182 188 178 177 181 194 198 188 194 211 200 196
310 308 304 300 290 286 284 287 290 291 291 295 301 312 312 298 303 303 320 317 314 317 322 326 327 330 337 338 340 325 262 257 209 217 200 187 164 167 189 186 193 196 188 193 225 198 197
308 309 305 300 292 283 280 281 285 288 288 289 294 303 312 304 299 307 316 317 312 318 324 327 329 335 341 356 3 7 158 233 179 171 181 186 182 192 162 194 192 192 192 203 200 198 193
308 306 303 301 295 284 281 279 280 283 284 285 287 295 305 293 299 305 311 313 313 321 325 327 334 340 343 354 23 44 79 132 153 165 180 187 166 185 176 186 194 195 204 164 199 198 192
308 302 299 297 295 287 284 281 280 280 277 279 286 289 296 296 303 306 309 306 313 319 326 329 334 342 336 354 16 71 65 81 156 163 183 187 180 170 174 189 199 197 203 206 194 198 194
308 301 295 292 289 285 282 280 277 276 270 274 278 284 288 297 292 303 305 307 312 322 325 329 337 344 351 355 14 25 39 139 159 135 161 172 177 167 153 172 191 203 211 215 198 206 208
306 300 294 291 287 284 281 276 271 269 263 268 272 273 284 287 290 297 300 307 311 320 323 328 341 351 347 354 22 27 67 99 128 124 138 154 165 180 169 150 170 201 211 214 201 199 199
304 296 293 288 287 287 281 273 271 263 262 258 265 269 276 282 288 293 290 303 309 318 322 328 343 346 16 10 26 59 78 116 118 108 121 132 153 157 152 158 190 194 203 212 208 196 198
305 300 294 289 287 286 280 275 268 260 254 252 257 261 271 278 289 286 285 297 305 316 321 327 342 321 174 349 54 106 114 135 130 85 113 122 119 128 141 129 157 192 192 209 191 206 226
306 302 298 296 293 288 282 270 263 252 244 240 247 250 261 272 280 281 280 290 300 315 319 323 339 303 210 251 98 121 127 137 150 107 108 128 126 129 113 98 128 163 179 189 191 204 204
308 308 306 302 301 296 286 273 258 239 231 229 237 244 252 264 274 273 278 283 296 314 315 317 353 154 155 157 125 139 128 75 130 130 129 135 149 138 103 99 91 168 170 168 181 175 178
313 315 313 309 304 303 300 280 255 233 222 218 228 240 250 258 270 267 270 274 290 309 312 306 203 170 170 151 142 152 98 87 111 117 129 141 148 156 142 128 120 145 164 167 174 188 177
320 319 316 311 313 312 297 262 161 213 214 212 219 232 242 253 259 256 249 266 290 308 310 291 164 166 173 163 152 157 144 130 141 122 123 126 141 156 161 153 171 198 239 231 234 202 187
324 322 317 316 318 312 220 144 127 170 198 201 205 216 228 244 248 232 238 254 283 304 316 276 195 181 181 183 178 196 152 130 128 118 118 120 129 133 148 162 192 209 222 219 205 199 200
326 322 320 320 324 295 168 155 148 174 190 185 186 202 212 226 224 218 229 243 279 308 342 243 225 176 185 186 183 169 159 151 144 142 129 127 127 151 167 178 200 194 213 214 201 202 202
326 323 321 323 321 221 171 163 157 171 174 177 182 193 205 213 214 206 212 228 255 315 17 54 189 195 186 190 180 178 172 153 155 148 86 98 141 221 228 226 225 199 196 218 215 218 223
327 322 324 324 314 201 179 167 167 169 171 181 183 186 191 200 201 201 196 209 210 36 53 68 146 189 193 190 187 190 194 185 204 226 279 342 271 237 204 219 237 222 219 215 212 221 225
327 325 326 321 284 178 183 180 172 168 169 172 176 182 186 192 190 193 186 188 167 118 71 79 84 163 181 204 210 203 210 225 240 258 268 257 250 213 181 318 279 264 265 240 221 231 240
328 327 325 316 179 170 185 171 168 170 169 172 176 180 177 176 188 178 176 180 149 115 93 83 78 116 177 180 195 211 221 227 238 243 240 234 224 217 225 232 274 310 302 233 236 245 247
330 325 319 201 175 175 174 170 163 169 170 167 167 172 173 179 181 175 172 166 148 132 110 88 78 94 150 182 198 200 212 216 221 224 224 231 238 239 245 250 252 259 264 273 272 269 272
333 323 276 195 168 171 168 156 165 168 164 151 146 161 168 181 181 175 164 163 154 134 120 108 94 87 102 120 166 203 212 219 224 225 228 234 234 237 244 248 253 251 252 261 255 258 266
330 308 210 176 171 166 159 163 168 170 160 152 152 163 167 178 176 166 163 158 155 142 124 117 106 97 91 98 131 131 172 203 224 228 228 230 234 236 240 244 252 260 259 262 266 259 262
325 201 176 165 163 160 170 166 159 160 162 161 163 160 164 175 173 165 165 160 157 154 143 123 115 106 93 87 95 100 111 126 144 198 221 230 235 237 244 253 260 256 260 258 260 265 263
288 159 164 163 163 172 167 163 161 162 178 178 167 163 174 171 170 167 168 163 157 157 159 148 134 121 110 98 90 90 98 103 114 117 150 197 222 233 237 245 248 259 264 264 265 261 260
162 160 161 165 170 174 174 169 170 174 185 188 171 165 178 169 171 172 171 167 166 161 155 157 152 142 134 120 107 94 86 89 92 100 111 115 146 211 242 245 245 248 254 262 264 267 267
168 158 165 171 169 175 170 167 172 173 179 178 170 170 176 168 172 173 175 173 173 174 172 165 160 156 151 136 132 144 130 117 99 90 88 91 85 62 15 240 235 241 247 256 261 265 269
Height
5780 5776 5772 5768 5764 5761 5756 5751 5747 5742 5740 5734 5727 5724 5720 5716 5712 5707 5702 5695 5688 5679 5669 5659 5647 5637 5626 5613 5601 5586 5578 5575 5572 5571 5573 5574 5574 5575 5581 5597 5613 5625 5639 5653 5663 5672 5685
5771 5766 5761 5757 5754 5750 5747 5743 5739 5735 5731 5727 5722 5717 5713 5710 5704 5699 5695 5688 5681 5671 5662 5652 5640 5628 5618 5603 5587 5577 5571 5570 5565 5567 5570 5572 5575 5579 5586 5598 5612 5627 5639 5651 5656 5671 5682
5760 5755 5752 5747 5743 5739 5736 5733 5731 5727 5722 5718 5714 5710 5707 5702 5696 5692 5688 5681 5673 5665 5655 5644 5634 5621 5608 5595 5580 5569 5567 5565 5561 5565 5569 5572 5575 5580 5587 5598 5613 5625 5635 5644 5656 5665 5676
5750 5745 5741 5736 5733 5729 5725 5722 5720 5718 5714 5711 5707 5703 5698 5695 5690 5686 5681 5673 5666 5658 5649 5637 5626 5615 5600 5583 5571 5563 5561 5561 5560 5564 5567 5572 5576 5583 5591 5602 5612 5620 5632 5641 5652 5663 5672
5739 5734 5729 5724 5719 5717 5716 5713 5710 5708 5704 5701 5700 5695 5690 5688 5684 5679 5673 5666 5660 5652 5643 5632 5620 5609 5594 5579 5567 5555 5554 5559 5560 5563 5568 5572 5577 5582 5595 5602 5611 5620 5631 5638 5647 5659 5671
5728 5722 5716 5712 5707 5705 5703 5702 5700 5699 5695 5692 5690 5688 5683 5681 5677 5673 5667 5660 5653 5647 5638 5627 5616 5607 5592 5581 5569 5555 5555 5558 5561 5565 5571 5575 5579 5581 5591 5602 5611 5619 5628 5643 5649 5658 5670
5716 5709 5703 5699 5697 5694 5692 5691 5689 5688 5687 5683 5680 5678 5678 5673 5670 5666 5661 5656 5650 5644 5634 5624 5613 5601 5592 5584 5574 5565 5561 5563 5565 5569 5574 5579 5584 5588 5596 5605 5612 5620 5629 5634 5648 5657 5666
5702 5695 5690 5686 5683 5682 5681 5679 5678 5677 5676 5674 5672 5670 5669 5665 5664 5659 5655 5650 5644 5639 5631 5620 5612 5603 5594 5588 5581 5576 5572 5571 5571 5574 5576 5582 5587 5593 5603 5610 5615 5621 5627 5633 5643 5655 5665
5687 5680 5676 5672 5669 5666 5665 5665 5665 5665 5665 5665 5663 5661 5660 5656 5658 5654 5650 5645 5640 5634 5629 5619 5611 5603 5598 5592 5585 5579 5575 5575 5577 5577 5581 5587 5593 5600 5607 5614 5618 5625 5631 5637 5647 5657 5665
5672 5666 5661 5656 5653 5650 5649 5648 5649 5651 5653 5654 5653 5653 5652 5649 5652 5648 5646 5641 5636 5631 5626 5618 5611 5605 5600 5595 5590 5584 5579 5580 5583 5585 5591 5597 5601 5606 5612 5615 5623 5628 5634 5638 5644 5655 5663
5659 5651 5644 5639 5632 5630 5628 5627 5630 5633 5637 5641 5643 5642 5643 5643 5643 5642 5640 5636 5633 5629 5624 5617 5610 5605 5602 5601 5598 5592 5590 5589 5591 5596 5601 5605 5609 5613 5617 5623 5627 5628 5634 5638 5646 5657 5662
5639 5632 5624 5618 5614 5607 5604 5604 5605 5611 5618 5625 5630 5632 5633 5635 5636 5636 5633 5632 5631 5628 5621 5614 5610 5605 5604 5603 5603 5599 5599 5599 5600 5603 5606 5610 5613 5616 5621 5626 5630 5633 5638 5643 5650 5658 5665
5619 5610 5601 5593 5587 5580 5576 5574 5578 5585 5597 5607 5615 5621 5623 5627 5630 5630 5628 5629 5628 5624 5619 5613 5609 5606 5605 5606 5607 5605 5607 5606 5608 5611 5612 5615 5617 5621 5625 5628 5631 5636 5640 5644 5653 5658 5662
5598 5589 5578 5567 5557 5548 5542 5540 5548 5560 5574 5586 5598 5607 5614 5618 5622 5624 5624 5626 5623 5620 5614 5610 5608 5606 5606 5607 5609 5611 5611 5612 5612 5615 5617 5618 5622 5625 5627 5631 5635 5637 5643 5647 5652 5659 5663
5577 5566 5552 5540 5528 5515 5507 5500 5511 5533 5554 5569 5584 5598 5605 5612 5616 5617 5620 5621 5617 5617 5612 5609 5607 5608 5608 5609 5613 5613 5615 5616 5616 5618 5623 5624 5625 5628 5631 5633 5639 5642 5646 5651 5656 5660 5665
5557 5541 5528 5517 5504 5492 5486 5490 5503 5516 5537 5556 5573 5585 5594 5603 5610 5611 5616 5616 5612 5614 5610 5606 5605 5608 5610 5612 5615 5617 5619 5619 5621 5622 5624 5627 5629 5631 5633 5637 5641 5645 5648 5653 5656 5660 5664
5539 5524 5511 5500 5488 5476 5478 5484 5491 5500 5516 5532 5555 5569 5584 5595 5600 5606 5610 5610 5609 5611 5608 5604 5604 5607 5610 5612 5615 5618 5621 5623 5623 5625 5627 5630 5633 5636 5636 5637 5641 5646 5648 5652 5657 5661 5664
5523 5509 5497 5486 5476 5470 5474 5476 5482 5493 5511 5530 5543 5560 5577 5586 5594 5601 5606 5606 5607 5608 5606 5604 5602 5605 5608 5612 5615 5617 5621 5624 5626 5628 5630 5632 5634 5636 5639 5640 5641 5643 5647 5650 5655 5661 5663
5510 5498 5486 5476 5468 5465 5471 5474 5481 5490 5507 5518 5536 5555 5567 5578 5590 5598 5601 5602 5604 5605 5604 5602 5602 5603 5607 5611 5615 5618 5621 5624 5627 5630 5632 5633 5635 5636 5638 5642 5643 5643 5646 5650 5652 5656 5660
5498 5487 5477 5468 5462 5464 5469 5473 5480 5488 5503 5521 5535 5549 5564 5575 5585 5593 5597 5600 5602 5603 5602 5601 5601 5601 5604 5610 5614 5618 5621 5624 5627 5629 5631 5634 5635 5637 5639 5640 5642 5644 5647 5648 5651 5655 5657
5489 5478 5469 5461 5457 5461 5468 5474 5480 5490 5505 5520 5534 5548 5562 5574 5582 5588 5594 5598 5600 5602 5601 5600 5599 5601 5605 5609 5613 5617 5619 5622 5626 5628 5631 5634 5637 5638 5639 5640 5641 5642 5643 5646 5650 5651 5653
5480 5470 5462 5456 5458 5461 5467 5473 5483 5495 5508 5523 5535 5548 5559 5570 5578 5586 5592 5596 5600 5602 5601 5600 5600 5601 5604 5606 5609 5613 5616 5620 5623 5627 5630 5634 5636 5638 5639 5640 5641 5641 5642 5644 5645 5647 5649
5472 5461 5458 5457 5459 5464 5469 5477 5490 5501 5512 5525 5537 5547 5557 5567 5577 5584 5589 5594 5599 5602 5601 5600 5600 5601 5602 5605 5606 5610 5613 5617 5621 5625 5628 5630 5633 5635 5637 5639 5641 5642 5641 5642 5643 5643 5645
5466 5458 5458 5458 5462 5468 5476 5490 5496 5505 5516 5527 5537 5546 5555 5566 5574 5581 5587 5593 5597 5601 5602 5601 5602 5602 5604 5602 5604 5607 5609 5612 5616 5620 5624 5626 5628 5630 5633 5635 5636 5637 5639 5640 5642 5643 5643
5462 5458 5460 5461 5467 5478 5489 5494 5503 5507 5518 5527 5534 5545 5553 5564 5571 5580 5586 5591 5597 5601 5603 5603 5604 5605 5605 5604 5603 5605 5606 5609 5612 5615 5618 5620 5623 5625 5627 5629 5630 5633 5636 5637 5638 5637 5639
5459 5457 5461 5468 5475 5486 5491 5500 5508 5515 5523 5528 5535 5543 5553 5565 5572 5578 5584 5590 5596 5600 5604 5605 5606 5606 5606 5606 5606 5606 5606 5608 5609 5611 5614 5616 5618 5620 5622 5624 5625 5627 5629 5631 5631 5632 5633
5459 5459 5467 5476 5484 5489 5498 5504 5511 5516 5524 5532 5538 5544 5554 5564 5571 5578 5584 5590 5595 5600 5604 5606 5608 5608 5609 5609 5609 5609 5609 5610 5609 5609 5610 5611 5613 5615 5615 5618 5620 5622 5622 5623 5624 5627 5622
5463 5467 5476 5486 5493 5500 5506 5511 5517 5520 5526 5534 5540 5545 5557 5563 5572 5578 5584 5590 5595 5600 5603 5607 5609 5610 5610 5611 5612 5612 5612 5613 5612 5611 5610 5611 5611 5612 5612 5612 5616 5615 5615 5616 5615 5615 5614
5472 5478 5484 5491 5500 5507 5512 5517 5521 5525 5531 5536 5542 5548 5556 5565 5572 5578 5584 5590 5595 5599 5604 5606 5609 5610 5611 5612 5613 5613 5613 5614 5614 5613 5613 5612 5612 5612 5611 5610 5610 5609 5608 5608 5606 5605 5604